This demonstration page uses our WeatherBlox Daily Observations layout. Learn more.

Left ArrowRight Arrow

Hourly Observations for November 13, 2019

Temp ( °F °C ) Dew Point ( °F °C ) Humidity (%) Winds ( mph kmh ) Pressure ( in mb ) Visibility ( mi km ) Precip ( " mm )
12:53 am 00:53 Clear 27 -2.8 9 -12.8 46 46 SSW 10 17 29.96 1015 10 16 0.00 0.00
1:53 am 01:53 Clear 26 -3.3 10 -12.2 51 51 S 10 17 29.93 1014 10 16 0.00 0.00
2:53 am 02:53 Clear 25 -3.9 10 -12.2 53 53 S 9 15 29.91 1013 10 16 0.00 0.00
3:53 am 03:53 Clear 26 -3.3 10 -12.2 51 51 S 10 17 29.88 1012 10 16 0.00 0.00
4:53 am 04:53 Clear 27 -2.8 11 -11.7 51 51 SSW 8 13 29.89 1012 10 16 0.00 0.00
5:53 am 05:53 Clear 28 -2.2 11 -11.7 49 49 SSW 7 11 29.88 1012 10 16 0.00 0.00
6:53 am 06:53 Clear 28 -2.2 11 -11.7 49 49 SSW 7 11 29.90 1013 10 16 0.00 0.00
7:53 am 07:53 Sunny 28 -2.2 12 -11.1 51 51 Calm 29.92 1013 10 16 0.00 0.00
8:53 am 08:53 Sunny 29 -1.7 14 -10 54 54 Calm 29.94 1014 10 16 0.00 0.00
9:53 am 09:53 Sunny 33 0.6 15 -9.4 47 47 NW 12 19 29.98 1015 10 16 0.00 0.00
10:53 am 10:53 Mostly Sunny 43 6.1 21 -6.1 42 42 N 16 26 29.98 1015 10 16 0.00 0.00
11:53 am 11:53 Mostly Sunny 49 9.4 33 0.6 55 55 N 15 24 29.98 1015 10 16 0.00 0.00
12:53 pm 12:53 Mostly Cloudy 48 8.9 36 2.2 63 63 N 17 28 29.99 1016 10 16 0.00 0.00
1:23 pm 13:23 Mostly Cloudy 49 9.4 36 2.2 61 61 N 20 31 29.97 1015 10 16 0.00 0.00
1:53 pm 13:53 Cloudy 48 8.9 36 2.2 63 63 N 20 31 30.00 1016 10 16 0.00 0.00
2:53 pm 14:53 Cloudy 47 8.3 34 1.1 61 61 N 16 26 30.02 1017 10 16 0.00 0.00
3:24 pm 15:24 Cloudy 46 7.8 33 0.6 61 61 N 17 28 30.02 1017 10 16 0.00 0.00
3:53 pm 15:53 Cloudy 46 7.8 32 0 58 58 N 15 24 30.06 1018 10 16 0.00 0.00
4:53 pm 16:53 Cloudy 44 6.7 31 -0.6 60 60 N 13 20 30.08 1019 10 16 0.00 0.00
5:53 pm 17:53 Partly Cloudy 39 3.9 30 -1.1 70 70 NNW 9 15 30.13 1020 10 16 0.00 0.00
6:53 pm 18:53 Cloudy 38 3.3 29 -1.7 70 70 NW 7 11 30.14 1021 10 16 0.00 0.00
7:53 pm 19:53 Cloudy 38 3.3 30 -1.1 73 73 W 5 7 30.16 1021 10 16 0.00 0.00
8:53 pm 20:53 Cloudy 39 3.9 31 -0.6 73 73 NNW 5 7 30.16 1021 10 16 0.00 0.00
9:53 pm 21:53 Cloudy 38 3.3 31 -0.6 76 76 NNW 6 9 30.19 1022 10 16 0.00 0.00
10:53 pm 22:53 Cloudy 37 2.8 31 -0.6 79 79 NNW 6 9 30.18 1022 10 16 0.00 0.00
11:53 pm 23:53 Partly Cloudy 35 1.7 30 -1.1 82 82 NNW 8 13 30.20 1023 10 16 0.00 0.00

Powered by AerisWeather